Regional Weather Roundup
Issued by NWS Kansas City/Pleasant Hill, MO

Home | Current Version | Previous Version | Text Only | Print | Product List | Glossary On
Versions: 1 2 3 4 5 6 7 8 9 10 11 12 13 14 15 16 17 18 19 20 21 22 23 24 25 26 27 28 29 30 31 32 33 34 35 36 37 38 39 40 41 42 43 44 45 46 47 48 49 50
000
ASUS43 KEAX 211910
RWREAX

WEATHER ROUNDUP FOR EASTERN KANSAS AND NORTHWEST MISSOURI
NATIONAL WEATHER SERVICE KANSAS CITY/PLEASANT HILL MO
200 PM CDT SAT APR 21 2018

KSZ040-057-103>105-MOZ028-029-037-043-212000-
...KANSAS CITY METROPOLITAN AREA...

CITY           SKY/WX    TMP DP  RH WIND       PRES   REMARKS
K.C. INTL      CLOUDY    58  31  35 NE14      30.18F
K.C. DOWNTOWN  CLOUDY    60  31  33 NE10      30.17F
LEES SUMMIT    PTSUNNY   60  33  36 E9        30.17F
OLATHE - IXD   CLOUDY    59  34  39 NE12      30.16F
OLATHE - OJC   CLOUDY    59  35  40 E9        30.15F
LAWRENCE       CLOUDY    54  36  50 N7        30.18F

$$

MOZ001>008-011>017-020>025-030>033-038>040-044>046-053-054-212000-
...NORTHERN AND CENTRAL MISSOURI...

CITY           SKY/WX    TMP DP  RH WIND       PRES   REMARKS
ST. JOSEPH     CLOUDY    56  31  38 NE12      30.22F
MOSBY          CLOUDY    61  28  29 E9G16     30.19S
WARRENSBURG    CLOUDY    66  32  28 NE7       30.17F
WHITEMAN AFB   PTSUNNY   66  34  31 SE10      30.13F
CLINTON        PTSUNNY   66  36  32 E12       30.16F
SEDALIA        CLOUDY    65  34  31 E10G17    30.19F
WARSAW         NOT AVBL
CHILLICOTHE      N/A     61  31  32 E7        30.24F
KIRKSVILLE     CLOUDY    62  30  29 E16G25    30.26F

$$

MOZ041-047>049-056>058-063>065-088>090-097-212000-
...EASTERN AND SOUTHERN MISSOURI...

CITY           SKY/WX    TMP DP  RH WIND       PRES   REMARKS
ST. LOUIS INTL CLOUDY    65  31  28 E17G24    30.24F
SPIRIT OF STL  CLOUDY    65  31  28 E15G23    30.21F
COLUMBIA       CLOUDY    64  29  26 E13       30.19F
JEFFERSON CITY CLOUDY    65  28  24 E15       30.18F
ROLLA          CLOUDY    64  31  28 E10       30.17F
OSAGE BEACH    CLOUDY    68  32  26 SE9G16    30.17F
SPRINGFIELD    MOSUNNY   66  37  34 SE17G28   30.11F
BRANSON        PTSUNNY   64  37  36 SE15G23   30.11F
JOPLIN         PTSUNNY   64  43  46 E14G21    30.10F
WEST PLAINS    CLOUDY    68  33  27 SE13G21   30.14F

$$

IAZ060-094-KSZ022-034>040-054-083-096-NEZ052-066-093-212000-
...KANSAS...SOUTHEAST NEBRASKA AND IOWA...

CITY           SKY/WX    TMP DP  RH WIND       PRES   REMARKS
TOPEKA         CLOUDY    48  45  89 N9        30.19F
MANHATTAN      LGT RAIN  47  44  90 NE10      30.21F FOG
EMPORIA        LGT RAIN  47  42  83 NE14      30.16F
CHANUTE        CLOUDY    57  39  51 E7        30.12R
WICHITA        LGT RAIN  47  45  93 NE16      30.12F
OMAHA          CLOUDY    54  29  38 NE3       30.27F
LINCOLN        CLOUDY    51  31  46 NE13      30.28F
FALLS CITY     CLOUDY    48  46  93 NW9       30.21F
LAMONI         CLOUDY    57  27  31 E10       30.27F
DES MOINES     CLOUDY    57  25  29 E10       30.31F

$$




USA.gov is the U.S. government's official web portal to all federal, state and local government web resources and services.